Stations météo

Publicité
Cap Ferret, France (7500): Température de l'air & dewpoint: 20.05.2019 17:00:00 - 26.05.2019 17:00:00 (CEST)Cap Ferret, France (7500): Vitesse du vent & gusts: 20.05.2019 17:00:00 - 26.05.2019 17:00:00 (CEST)Cap Ferret, France (7500): Direction du vent: 20.05.2019 17:00:00 - 26.05.2019 17:00:00 (CEST)Cap Ferret, France (7500): reduced air pressure: 20.05.2019 17:00:00 - 26.05.2019 17:00:00 (CEST)Cap Ferret, France (7500): visibility: 20.05.2019 17:00:00 - 26.05.2019 17:00:00 (CEST)Cap Ferret, France (7500): Quantités de précipitations: 20.05.2019 17:00:00 - 26.05.2019 17:00:00 (CEST)
Date & Time tt [°C] td [°C] ff [km/h] ff [knt] fx [km/h] fx [knt] dd ppp [hPa] vv [km] rr [mm]
26.05.2019 17:00:00 - - - - - - - - - -
26.05.2019 16:00:00 19,6 14,0 16 9 30 16 W 1021,6 - 0,0
26.05.2019 15:00:00 19,9 13,6 16 9 26 14 WNW 1021,7 - 0,0
26.05.2019 14:00:00 18,8 13,2 14 8 19 11 W 1022,0 - 0,0
26.05.2019 13:00:00 19,7 12,9 13 7 23 12 W 1022,2 - 0,0
26.05.2019 12:00:00 19,3 13,7 14 8 19 11 W 1022,4 - 0,0
26.05.2019 11:00:00 19,1 13,3 10 5 17 9 W 1022,4 20 0,0
26.05.2019 10:00:00 18,9 12,9 9 5 17 9 NW 1022,4 - 0,0
26.05.2019 09:00:00 18,0 14,1 9 5 14 7 WNW 1022,3 - 0,0
26.05.2019 08:00:00 15,4 13,6 7 4 16 9 WNW 1022,2 15 0,0
26.05.2019 07:00:00 13,9 12,1 10 6 16 9 NW 1022,0 - 0,0
26.05.2019 06:00:00 14,1 11,8 11 6 22 12 NW 1022,2 - 0,0
26.05.2019 05:00:00 14,8 12,1 15 8 27 15 NW 1022,3 10 0,0
26.05.2019 04:00:00 15,2 12,7 14 7 24 13 NNW 1022,5 - 0,0
26.05.2019 03:00:00 15,0 12,5 7 4 21 12 N 1022,8 - 0,0
26.05.2019 02:00:00 15,3 12,1 13 7 24 13 NW 1023,2 10 0,0
26.05.2019 01:00:00 15,4 11,8 16 9 29 16 NW 1023,6 - 0,0
26.05.2019 00:00:00 15,4 11,4 18 10 31 17 NW 1023,8 - 0,0
25.05.2019 23:00:00 15,5 11,7 19 10 32 17 NW 1023,8 20 0,0
25.05.2019 22:00:00 15,4 11,2 16 9 32 18 NW 1023,3 - 0,0
25.05.2019 21:00:00 16,1 11,0 22 12 35 19 NW 1023,0 - 0,0
25.05.2019 20:00:00 17,3 10,9 22 12 35 19 NW 1022,6 17 0,0
25.05.2019 19:00:00 18,7 11,0 22 12 36 19 NW 1022,7 - 0,0
25.05.2019 18:00:00 19,7 11,7 23 12 36 19 WNW 1022,8 - 0,0
25.05.2019 17:00:00 20,3 11,0 21 12 40 22 NW 1022,8 15 0,0
25.05.2019 16:00:00 20,2 12,4 26 14 43 23 NW 1022,8 - 0,0
25.05.2019 15:00:00 20,5 13,2 27 15 42 23 NW 1022,9 - 0,0
25.05.2019 14:00:00 19,4 12,9 21 12 34 18 NW 1022,9 15 0,0
25.05.2019 13:00:00 19,1 12,6 21 12 34 18 NNW 1023,0 - 0,0
25.05.2019 12:00:00 19,6 12,8 17 9 32 17 NW 1022,8 - 0,0
25.05.2019 11:00:00 17,8 12,7 16 9 32 18 N 1022,7 15 0,0
25.05.2019 10:00:00 17,1 12,4 14 7 24 13 NNW 1022,3 - 0,0
25.05.2019 09:00:00 15,5 11,3 12 7 21 12 N 1021,9 - 0,0
25.05.2019 08:00:00 15,5 11,5 6 3 21 11 N 1021,3 10 0,0
25.05.2019 07:00:00 14,3 12,2 10 5 23 12 N 1020,8 - 0,0
25.05.2019 06:00:00 15,0 13,9 12 6 26 14 N 1020,3 - 0,0
25.05.2019 05:00:00 15,5 14,2 15 8 32 17 NW 1020,1 10 0,0
25.05.2019 04:00:00 15,2 13,7 22 12 35 19 WNW 1020,1 - 0,0
25.05.2019 03:00:00 15,3 13,7 24 13 35 19 WNW 1020,0 - 0,0
25.05.2019 02:00:00 15,4 13,6 20 11 35 19 NW 1020,4 - 0,0
25.05.2019 01:00:00 15,3 13,1 19 11 38 21 NW 1020,7 - 0,0
25.05.2019 00:00:00 15,4 12,9 27 14 41 22 NW 1020,6 - 0,0
24.05.2019 23:00:00 15,4 12,2 30 16 43 23 NW 1020,5 15 0,0
24.05.2019 22:00:00 15,5 12,1 23 13 37 20 NW 1019,9 - 0,0
24.05.2019 21:00:00 16,3 12,3 19 11 43 23 NNW 1019,3 - 0,0
24.05.2019 20:00:00 17,7 12,6 24 13 45 24 NW 1018,8 12 0,0
24.05.2019 19:00:00 19,2 13,1 19 10 38 20 NNW 1018,7 - 0,0
24.05.2019 18:00:00 19,6 14,2 24 13 37 20 NW 1018,8 - 0,0
24.05.2019 17:00:00 19,7 13,4 24 13 38 20 NW 1019,0 10 0,0
24.05.2019 16:00:00 21,1 14,7 20 11 31 17 WNW 1018,8 - 0,0
24.05.2019 15:00:00 21,0 14,9 17 9 28 15 W 1019,1 - 0,0
24.05.2019 14:00:00 19,9 14,3 23 12 34 19 WNW 1019,3 10 0,0
24.05.2019 13:00:00 19,0 14,0 23 13 34 19 WNW 1019,4 - 0,0
24.05.2019 12:00:00 20,2 15,0 16 9 25 14 WNW 1019,2 - 0,0
24.05.2019 11:00:00 18,7 15,0 14 7 22 12 W 1019,0 10 0,0
24.05.2019 10:00:00 16,8 13,7 11 6 23 12 WNW 1019,0 - 0,0
24.05.2019 09:00:00 15,8 13,3 17 9 27 15 NW 1018,8 - 0,0
24.05.2019 08:00:00 15,5 13,7 16 8 22 12 NW 1018,4 6 0,0
24.05.2019 07:00:00 15,1 13,5 13 7 23 12 WNW 1018,1 - 0,0
24.05.2019 06:00:00 15,1 13,6 14 8 21 12 W 1017,7 - 0,0
24.05.2019 05:00:00 15,1 13,6 16 9 29 15 WNW 1017,7 6 0,0
24.05.2019 04:00:00 15,3 13,8 25 13 31 17 W 1018,0 - 0,0
24.05.2019 03:00:00 15,4 13,9 27 14 32 17 W 1018,2 - 0,0
24.05.2019 02:00:00 15,6 14,3 22 12 29 16 W 1018,6 6 0,0
24.05.2019 01:00:00 15,9 14,4 24 13 33 18 W 1018,7 - 0,0
24.05.2019 00:00:00 16,0 14,4 24 13 29 16 W 1018,7 - 0,0
23.05.2019 23:00:00 16,2 14,6 22 12 27 15 W 1018,7 15 0,0
23.05.2019 22:00:00 16,5 14,7 15 8 22 12 W 1018,2 - -
23.05.2019 21:00:00 16,9 14,9 14 8 22 12 WSW 1018,0 - 0,0
23.05.2019 20:00:00 17,7 15,1 14 8 24 13 SW 1017,9 8 0,0
23.05.2019 19:00:00 18,9 15,0 6 3 17 9 N 1017,2 - 0,0
23.05.2019 18:00:00 20,3 15,9 8 4 21 11 W 1017,4 - 0,0
23.05.2019 17:00:00 20,0 16,4 10 6 26 14 SW 1017,2 8 0,0
23.05.2019 16:00:00 18,9 16,5 18 10 29 16 SW 1017,3 - 0,0
23.05.2019 15:00:00 18,6 15,5 10 5 19 10 S 1017,0 - 0,0
23.05.2019 14:00:00 19,3 15,6 10 5 21 11 WSW 1017,7 6 0,0
23.05.2019 13:00:00 20,3 14,9 13 7 23 13 SW 1017,8 - 0,0
23.05.2019 12:00:00 21,4 13,3 9 5 18 10 SW 1017,9 - 0,0
23.05.2019 11:00:00 21,4 12,5 6 3 14 8 WSW 1017,7 15 0,0
23.05.2019 10:00:00 21,1 12,2 7 4 16 8 S 1017,4 - 0,0
23.05.2019 09:00:00 18,2 11,3 7 4 21 11 ESE 1017,3 - 0,0
23.05.2019 08:00:00 16,8 11,5 8 5 22 12 E 1017,0 17 0,0
23.05.2019 07:00:00 14,8 10,8 13 7 20 11 ENE 1016,9 - 0,0
23.05.2019 06:00:00 15,1 10,5 9 5 21 11 ENE 1016,7 - 0,0
23.05.2019 05:00:00 14,5 11,5 11 6 18 10 NNE 1016,8 10 0,0
23.05.2019 04:00:00 14,7 12,2 11 6 18 10 ENE 1017,1 - 0,0
23.05.2019 03:00:00 15,5 12,6 14 8 19 10 NE 1017,2 - 0,0
23.05.2019 02:00:00 15,9 13,0 12 7 18 10 NE 1017,7 10 0,0
23.05.2019 01:00:00 16,2 13,7 13 7 19 10 NE 1017,7 - 0,0
23.05.2019 00:00:00 16,4 13,5 12 6 18 10 NNE 1017,9 - 0,0
22.05.2019 23:00:00 16,2 12,7 11 6 13 7 NE 1018,1 20 0,0
22.05.2019 22:00:00 17,2 12,7 12 6 18 10 N 1017,8 - 0,0
22.05.2019 21:00:00 18,7 12,2 12 6 37 20 N 1017,7 - 0,0
22.05.2019 20:00:00 19,2 12,7 23 12 41 22 N 1017,7 13 0,0
22.05.2019 19:00:00 20,5 12,2 23 12 42 23 NNW 1018,0 - 0,0
22.05.2019 18:00:00 21,1 12,2 19 11 38 20 NNW 1018,3 - 0,0
22.05.2019 17:00:00 21,1 12,2 22 12 36 19 NNW 1018,8 13 0,0
22.05.2019 16:00:00 20,5 13,7 21 12 35 19 NNW 1019,4 - 0,0
22.05.2019 15:00:00 20,9 13,8 20 11 32 17 NW 1019,7 - 0,0
22.05.2019 14:00:00 20,8 14,0 16 8 24 13 WNW 1019,9 13 0,0
22.05.2019 13:00:00 20,6 14,5 13 7 21 11 W 1020,2 - 0,0
22.05.2019 12:00:00 20,0 14,8 10 5 18 10 WNW 1020,5 - 0,0
22.05.2019 11:00:00 19,2 13,6 9 5 15 8 W 1020,3 10 0,0
22.05.2019 10:00:00 17,7 13,6 8 4 14 7 WNW 1020,3 - 0,0
22.05.2019 09:00:00 16,4 14,8 5 3 11 6 W 1020,2 - 0,0
22.05.2019 08:00:00 13,0 12,1 3 1 10 5 NNE 1020,1 13 0,0
22.05.2019 07:00:00 9,6 8,4 8 4 9 5 NE 1019,8 - 0,0
22.05.2019 06:00:00 10,0 8,4 9 5 10 5 N 1019,7 - 0,0
22.05.2019 05:00:00 10,8 9,1 8 5 13 7 NNE 1019,9 10 0,0
22.05.2019 04:00:00 12,4 10,5 9 5 18 10 NNE 1019,9 - 0,0
22.05.2019 03:00:00 12,9 11,1 11 6 16 9 NNE 1020,0 - 0,0
22.05.2019 02:00:00 13,3 11,4 9 5 16 9 NNE 1020,0 15 0,0
22.05.2019 01:00:00 13,4 11,3 13 7 16 9 NNE 1020,1 - 0,0
22.05.2019 00:00:00 13,9 11,8 10 6 19 10 NNE 1020,4 - 0,0
21.05.2019 23:00:00 14,3 11,8 11 6 18 10 NNE 1020,4 20 0,0
21.05.2019 22:00:00 15,0 11,9 9 5 23 13 N 1019,6 - 0,0
21.05.2019 21:00:00 15,8 11,8 15 8 32 17 N 1019,4 - 0,0
21.05.2019 20:00:00 16,7 12,2 20 11 36 20 NNW 1019,2 20 0,0
21.05.2019 19:00:00 17,7 11,9 21 11 35 19 NNW 1019,3 - 0,0
21.05.2019 18:00:00 18,7 12,2 19 10 34 18 NW 1019,3 - 0,0
21.05.2019 17:00:00 19,7 12,2 19 10 32 17 NW 1019,4 - 0,0
21.05.2019 16:00:00 20,0 11,7 18 10 27 15 WNW 1019,4 - 0,0
21.05.2019 15:00:00 19,9 11,1 15 8 24 13 W 1019,6 - 0,0
21.05.2019 14:00:00 19,5 12,0 14 8 25 13 WNW 1019,6 20 0,0
21.05.2019 13:00:00 18,7 12,0 16 8 23 13 WNW 1019,7 - 0,0
21.05.2019 12:00:00 17,6 11,4 13 7 21 12 WNW 1019,6 - 0,0
21.05.2019 11:00:00 17,1 11,1 13 7 21 12 WNW 1019,4 15 0,0
21.05.2019 10:00:00 15,9 10,9 10 5 17 9 WNW 1018,9 - 0,0
21.05.2019 09:00:00 14,5 11,5 9 5 16 9 WNW 1018,8 - 0,0
21.05.2019 08:00:00 13,0 11,6 4 2 12 7 NW 1018,3 15 0,0
21.05.2019 07:00:00 10,6 8,5 6 3 11 6 N 1017,9 - 0,0
21.05.2019 06:00:00 12,0 9,7 8 4 12 6 N 1017,5 - 0,0
21.05.2019 05:00:00 12,4 10,5 8 4 13 7 N 1017,4 15 0,0
21.05.2019 04:00:00 11,7 9,8 8 4 18 10 NNW 1017,3 - 0,0
21.05.2019 03:00:00 11,1 8,8 11 6 16 8 N 1017,1 - 0,0
21.05.2019 02:00:00 11,7 8,7 10 5 15 8 N 1017,2 15 0,0
21.05.2019 01:00:00 12,6 9,1 11 6 16 9 NNW 1017,5 - 0,0
21.05.2019 00:00:00 13,7 9,3 10 5 21 12 N 1017,6 - 0,0
20.05.2019 23:00:00 14,3 9,7 12 6 24 13 NNW 1017,6 13 0,0
20.05.2019 22:00:00 14,4 10,0 13 7 23 13 NNW 1016,8 - 0,0
20.05.2019 21:00:00 15,0 10,4 15 8 25 13 NW 1016,4 - 0,0
20.05.2019 20:00:00 16,0 10,7 15 8 27 15 NW 1016,1 12 0,0
20.05.2019 19:00:00 17,5 11,3 15 8 31 17 NW 1015,8 - 0,0
20.05.2019 18:00:00 18,0 11,5 21 11 30 16 NW 1015,8 - 0,0
20.05.2019 17:00:00 19,1 11,9 17 9 29 15 WNW 1015,6 12 0,0

tt = Température de l'air
td = dewpoint
ff = Vitesse du vent
fx = gusts
dd = Direction du vent
ppp = reduced air pressure
vv = visibility
rr = Quantités de précipitations

stations d'obs. à proximité